Weather History for Kenai, AK

Change the Weather History Date:

Tuesday, June 18, 2013

  Actual Average Record
Temperature  
Mean Temperature 55 °F -  
Max Temperature 68 °F 57 °F 78 °F (1983)
Min Temperature 46 °F 43 °F 35 °F (1955)
Degree Days  
Heating Degree Days 10    
Growing Degree Days 5 (Base 50)    
Moisture  
Dew Point 47 °F    
Average Humidity 70    
Maximum Humidity 93    
Minimum Humidity 57    
Precipitation  
Precipitation 0.00 in - - ()
Sea Level Pressure  
Sea Level Pressure 29.85 in    
Wind  
Wind Speed 7 mph (SSW)    
Max Wind Speed 18 mph    
Max Gust Speed 23 mph    
Visibility 10 miles    
Events      
Averages and records for this station are not official NWS values.
T = Trace of Precipitation, MM = Missing Value Source: NWS Daily Summary

Daily Weather History Graph

Daily Weather History Graph

Search for Another Location

Airport:

Trip Planner

Search our weather history database for the weather conditions in past years. The results will help you decide how hot, cold, wet, or windy it might be!

Date:

Astronomy

Jun. 18, 2013 Rise Set
Actual Time 4:33 AM AKDT 11:39 PM AKDT
Civil Twilight 2:12 AM AKDT 1:33 AM AKDT
Nautical Twilight Sun does not rise Sun does not rise
Astronomical Twilight Sun does not rise Sun does not rise
Moon 5:23 PM AKDT (6/18) 2:12 AM AKDT (6/18)
Length of Visible Light 23h 21m
Length of Day
19h 05m
Waxing Gibbous, 72% of the Moon is Illuminated
Jun 18
Waxing Gibbous
Jun 23
Full
Jun 29
Last Quarter
Jul 7
New
Jul 15
First Quarter

Hourly Weather History & Observations

Time (AKDT) Temp. Dew Point Humidity Pressure Visibility Wind Dir Wind Speed Gust Speed Precip Events Conditions
12:53 AM 53.1 °F 46.0 °F 77% 29.86 in 10.0 mi West 3.5 mph - N/A   Clear
1:53 AM 53.1 °F 48.0 °F 83% 29.86 in 10.0 mi Calm Calm - N/A   Clear
2:53 AM 52.0 °F 46.0 °F 80% 29.86 in 10.0 mi East 3.5 mph - N/A   Clear
3:53 AM 46.9 °F 45.0 °F 93% 29.86 in 10.0 mi NNE 4.6 mph - N/A   Clear
4:53 AM 50.0 °F 46.0 °F 86% 29.85 in 10.0 mi Calm Calm - N/A   Clear
5:53 AM 50.0 °F 46.0 °F 86% 29.85 in 10.0 mi Calm Calm - N/A   Clear
6:53 AM 53.1 °F 48.9 °F 86% 29.85 in 10.0 mi Calm Calm - N/A   Clear
7:53 AM 61.0 °F 50.0 °F 67% 29.83 in 10.0 mi NNW 5.8 mph - N/A   Clear
8:53 AM 64.9 °F 51.1 °F 61% 29.83 in 10.0 mi South 3.5 mph - N/A   Clear
9:53 AM 64.0 °F 50.0 °F 60% 29.83 in 10.0 mi South 8.1 mph - N/A   Clear
10:53 AM 59.0 °F 48.9 °F 69% 29.83 in 10.0 mi SW 13.8 mph - N/A   Clear
11:53 AM 61.0 °F 48.0 °F 62% 29.82 in 10.0 mi SW 12.7 mph - N/A   Clear
12:53 PM 61.0 °F 48.0 °F 62% 29.83 in 10.0 mi SSW 15.0 mph - N/A   Clear
1:53 PM 60.1 °F 48.0 °F 64% 29.83 in 10.0 mi SSW 16.1 mph - N/A   Clear
2:53 PM 61.0 °F 48.0 °F 62% 29.82 in 10.0 mi SSW 17.3 mph - N/A   Clear
3:53 PM 61.0 °F 48.0 °F 62% 29.83 in 10.0 mi SSW 17.3 mph - N/A   Clear
4:53 PM 59.0 °F 48.0 °F 67% 29.84 in 10.0 mi SW 18.4 mph 23.0 mph N/A   Clear
5:53 PM 57.9 °F 48.0 °F 70% 29.85 in 10.0 mi SSW 12.7 mph - N/A   Clear
6:53 PM 57.9 °F 48.0 °F 70% 29.86 in 10.0 mi SSW 15.0 mph - N/A   Clear
7:53 PM 62.1 °F 46.9 °F 58% 29.86 in 10.0 mi SSW 16.1 mph - N/A   Clear
8:53 PM 57.0 °F 46.9 °F 69% 29.86 in 10.0 mi SSW 16.1 mph - N/A   Clear
9:53 PM 61.0 °F 46.0 °F 58% 29.90 in 10.0 mi SSE 8.1 mph - N/A   Clear
10:53 PM 60.1 °F 45.0 °F 57% 29.90 in 10.0 mi South 11.5 mph - N/A   Clear
11:53 PM 57.9 °F 45.0 °F 62% 29.93 in 10.0 mi South 8.1 mph - N/A   Clear